[Date Prev][Date Next][Thread Prev][Thread Next] - [Date Index][Thread Index][Author Index]

2 Line ISS Keps 5-7



ISS
1 25544U 98067A   04128.31616440  .00008173  00000-0  73420-4 0  7267
2 25544  51.6264 174.0565 0010827 106.2917 309.1193 15.69241232311903


----
Via the sarex mailing list at AMSAT.ORG courtesy of AMSAT-NA.
To unsubscribe, send "unsubscribe sarex" to Majordomo@amsat.org



AMSAT Top AMSAT Home